DW0186 Weather Reports


time (UTC)temp
F
wind
direction
speed
knots
gust
knots
rain 1hr
in
rain 24hr
in
rain mn
in
humidity
%
barometer
mb
20260507040029 59 360 0.0 0.0 0.00 0.00 0.00 80 1018.1
20260507034528 60 360 0.0 0.0 0.00 0.00 0.00 79 1018.0
20260507033034 61 360 0.0 0.0 0.00 0.00 0.00 78 1017.8
20260507031530 63 360 0.0 0.9 0.00 0.00 0.00 76 1017.6
20260507030028 63 360 0.0 0.0 0.00 0.00 0.00 74 1017.2
20260507024527 64 360 0.0 0.9 0.00 0.00 0.00 72 1017.0
20260507023027 65 355 0.0 0.9 0.00 0.00 0.00 71 1016.9
20260507021526 66 355 0.0 1.7 0.00 0.00 0.00 70 1016.7
20260507020026 67 355 0.0 0.9 0.00 0.00 0.00 68 1016.7
20260507014537 69 355 0.0 0.9 0.00 0.00 0.00 65 1016.7
20260507013026 70 355 0.0 1.7 0.00 0.00 0.00 62 1016.6
20260507011527 71 355 0.0 2.6 0.00 0.00 0.00 60 1016.6
20260507010022 71 355 0.0 0.9 0.00 0.00 0.00 59 1016.6
20260507004532 72 346 0.0 2.6 0.00 0.00 0.00 58 1016.5
20260507003023 73 338 0.0 0.9 0.00 0.00 0.00 56 1016.3
20260507001525 73 342 0.0 1.7 0.00 0.00 0.00 56 1016.4
20260507000025 74 336 0.0 0.9 0.00 0.00 0.00 55 1016.5
20260506234529 74 343 0.0 1.7 0.00 0.00 0.00 56 1016.5
20260506233017 74 347 0.0 0.9 0.00 0.00 0.00 56 1016.6
20260506231529 74 321 0.0 0.9 0.00 0.00 0.00 56 1016.7
20260506230014 75 336 0.0 0.9 0.00 0.00 0.00 55 1016.7
20260506224512 76 344 0.0 0.9 0.00 0.00 0.00 54 1017.0
20260506223010 76 346 0.0 0.9 0.00 0.00 0.00 53 1017.1
20260506221509 75 350 0.0 0.9 0.00 0.00 0.00 53 1017.2
20260506220006 75 350 0.0 0.0 0.00 0.00 0.00 55 1017.4
20260506214503 74 349 0.0 0.9 0.00 0.00 0.00 53 1017.7
20260506213002 74 348 0.0 0.0 0.00 0.00 0.00 54 1017.9
20260506211502 74 348 0.0 0.9 0.00 0.00 0.00 55 1018.0
20260506204600 73 348 0.0 0.9 0.00 0.00 0.00 56 1018.4
20260506203055 73 360 0.0 1.7 0.00 0.00 0.00 56 1018.5
20260506201604 73 355 0.0 0.9 0.00 0.00 0.00 57 1018.6
20260506200100 72 355 0.0 0.9 0.00 0.00 0.00 57 1018.8
20260506194603 72 355 0.0 2.6 0.00 0.00 0.00 58 1019.0
20260506193050 71 355 0.0 1.7 0.00 0.00 0.00 57 1019.0
20260506191549 71 348 0.0 1.7 0.00 0.00 0.00 58 1019.2
20260506190044 70 347 0.0 0.9 0.00 0.00 0.00 61 1019.3
20260506184542 69 346 0.0 0.0 0.00 0.00 0.00 61 1019.6
20260506183055 68 346 0.0 0.9 0.00 0.00 0.00 62 1019.5
20260506181538 67 346 0.0 0.9 0.00 0.00 0.00 65 1019.6
20260506180035 66 346 0.0 0.0 0.00 0.00 0.00 66 1019.7
20260506174528 64 346 0.0 0.0 0.00 0.00 0.00 70 1019.7
20260506173026 64 346 0.0 0.0 0.00 0.00 0.00 70 1019.8
20260506171529 62 346 0.0 0.0 0.00 0.00 0.00 74 1019.7
20260506170018 60 346 0.0 0.0 0.00 0.00 0.00 75 1019.9
20260506164516 60 346 0.0 0.0 0.00 0.00 0.00 76 1020.0
20260506163014 60 346 0.0 0.0 0.00 0.00 0.00 77 1019.9
20260506161511 59 346 0.0 0.9 0.00 0.00 0.00 79 1019.9
20260506160010 58 346 0.0 0.0 0.00 0.00 0.00 81 1019.9
20260506154503 57 346 0.0 0.0 0.00 0.00 0.00 81 1019.9
20260506153058 57 346 0.0 0.0 0.00 0.00 0.00 81 1019.9
20260506151556 56 346 0.0 0.0 0.00 0.00 0.00 82 1019.8
20260506150053 56 346 0.0 0.0 0.00 0.00 0.00 82 1019.9
20260506144601 55 346 0.0 0.0 0.00 0.00 0.00 83 1019.9
20260506143048 55 346 0.0 0.0 0.00 0.00 0.00 83 1019.8
20260506141546 55 346 0.0 0.0 0.00 0.00 0.00 83 1019.8
20260506140045 55 346 0.0 0.0 0.00 0.00 0.00 83 1019.6
20260506134540 55 346 0.0 0.0 0.00 0.00 0.00 83 1019.3
20260506133040 55 346 0.0 0.0 0.00 0.00 0.00 83 1019.1
20260506131537 55 346 0.0 0.0 0.00 0.00 0.00 83 1019.0
20260506130037 55 346 0.0 0.0 0.00 0.00 0.00 83 1019.0
20260506124536 55 346 0.0 0.0 0.00 0.00 0.00 83 1018.7
20260506123036 55 346 0.0 0.0 0.00 0.00 0.00 83 1018.7
20260506121533 55 346 0.0 0.0 0.00 0.00 0.00 83 1018.7
20260506120040 55 346 0.0 0.0 0.00 0.00 0.00 83 1018.5
20260506114533 55 346 0.0 0.0 0.00 0.00 0.00 83 1018.5
20260506113033 55 346 0.0 0.0 0.00 0.00 0.00 84 1018.4
20260506111530 55 346 0.0 0.0 0.00 0.00 0.00 83 1018.4
20260506110032 55 346 0.0 0.0 0.00 0.00 0.00 83 1018.2
20260506104529 55 346 0.0 0.0 0.00 0.00 0.00 82 1018.2
20260506103029 55 346 0.0 0.0 0.00 0.00 0.00 82 1018.2
20260506101527 56 346 0.0 0.0 0.00 0.00 0.00 82 1018.2
20260506100028 56 346 0.0 0.0 0.00 0.00 0.00 82 1018.2
20260506094525 56 346 0.0 0.0 0.00 0.00 0.00 81 1018.2
20260506093024 56 346 0.0 0.0 0.00 0.00 0.00 81 1018.4
20260506091524 56 346 0.0 0.0 0.00 0.00 0.00 81 1018.4
20260506090035 56 346 0.0 0.0 0.00 0.00 0.00 81 1018.3
20260506084524 56 346 0.0 0.0 0.00 0.00 0.00 81 1018.3
20260506083022 56 346 0.0 0.0 0.00 0.00 0.00 80 1018.3
20260506081521 56 346 0.0 0.0 0.00 0.00 0.00 80 1018.4
20260506073016 57 346 0.0 0.0 0.00 0.00 0.00 79 1017.9
20260506071514 57 346 0.0 0.0 0.00 0.00 0.00 78 1017.7
20260506061512 57 346 0.0 0.0 0.00 0.00 0.00 77 1017.4
20260506044506 58 346 0.0 0.0 0.00 0.00 0.00 74 1016.7
20260506043110 58 346 0.0 0.0 0.00 0.00 0.00 74 1016.6
20260506041600 58 346 0.0 0.0 0.00 0.00 0.00 73 1016.3